Hourly Weather Bolshie Stariki

Today, 18 June, Friday

Time Temperature Precipitation Wind Pressure Humidity
00:00 +16°C° 0 mm 1 mps 759 mmHg 71%
01:00 +15°C° 0 mm 1 mps 759 mmHg 72%
02:00 +15°C° 0 mm 1 mps 759 mmHg 73%
03:00 +15°C° 0 mm 1 mps 759 mmHg 74%
04:00 +16°C° 0 mm 1 mps 759 mmHg 74%
05:00 +16°C° 0 mm 2 mps 759 mmHg 75%
06:00 +18°C° 0 mm 2 mps 759 mmHg 69%
07:00 +20°C° 0 mm 2 mps 759 mmHg 62%
08:00 +24°C° 0 mm 2 mps 759 mmHg 56%
09:00 +25°C° 0 mm 2 mps 759 mmHg 52%
10:00 +26°C° 0 mm 3 mps 759 mmHg 47%
11:00 +28°C° 0 mm 3 mps 759 mmHg 43%
12:00 +29°C° 0 mm 3 mps 758 mmHg 41%
13:00 +29°C° 0 mm 3 mps 758 mmHg 39%
14:00 +30°C° 0 mm 3 mps 758 mmHg 37%
15:00 +30°C° 0 mm 3 mps 757 mmHg 40%
16:00 +30°C° 0 mm 3 mps 757 mmHg 43%
17:00 +29°C° 0 mm 2 mps 757 mmHg 46%
18:00 +27°C° 0 mm 2 mps 757 mmHg 55%
19:00 +25°C° 0 mm 2 mps 757 mmHg 65%
20:00 +23°C° 0 mm 2 mps 757 mmHg 74%
21:00 +21°C° 0 mm 2 mps 757 mmHg 77%
22:00 +20°C° 0 mm 2 mps 757 mmHg 80%
23:00 +19°C° 0 mm 2 mps 758 mmHg 83%

Tomorrow, 19 June, Saturday

Time Temperature Precipitation Wind Pressure Humidity
00:00 +18°C° 0 mm 2 mps 758 mmHg 86%
01:00 +18°C° 0 mm 2 mps 758 mmHg 88%
02:00 +17°C° 0 mm 2 mps 758 mmHg 91%
03:00 +17°C° 0 mm 2 mps 758 mmHg 90%
04:00 +18°C° 0 mm 2 mps 758 mmHg 88%
05:00 +18°C° 0 mm 2 mps 758 mmHg 87%
06:00 +20°C° 0 mm 2 mps 758 mmHg 79%
07:00 +23°C° 0 mm 2 mps 758 mmHg 71%
08:00 +25°C° 0 mm 2 mps 758 mmHg 63%
09:00 +26°C° 0 mm 2 mps 758 mmHg 58%
10:00 +27°C° 0 mm 2 mps 758 mmHg 52%
11:00 +29°C° 0 mm 2 mps 758 mmHg 47%
12:00 +29°C° 0 mm 2 mps 757 mmHg 44%
13:00 +30°C° 0 mm 2 mps 757 mmHg 42%
14:00 +31°C° 0 mm 2 mps 757 mmHg 39%
15:00 +30°C° 0 mm 2 mps 756 mmHg 41%
16:00 +30°C° 0 mm 2 mps 756 mmHg 44%
17:00 +30°C° 0 mm 2 mps 756 mmHg 46%
18:00 +28°C° 0 mm 2 mps 756 mmHg 56%
19:00 +26°C° 0 mm 2 mps 756 mmHg 65%
20:00 +24°C° 0 mm 2 mps 756 mmHg 75%
21:00 +23°C° 0 mm 2 mps 756 mmHg 78%
22:00 +21°C° 0 mm 2 mps 756 mmHg 81%
23:00 +20°C° 0 mm 2 mps 756 mmHg 84%

Day after tomorrow, 20 June, Sunday

Time Temperature Precipitation Wind Pressure Humidity
00:00 +19°C° 0 mm 2 mps 756 mmHg 86%
01:00 +19°C° 0 mm 2 mps 756 mmHg 89%
02:00 +18°C° 0 mm 2 mps 756 mmHg 91%
03:00 +18°C° 0 mm 2 mps 756 mmHg 90%
04:00 +19°C° 0 mm 2 mps 756 mmHg 89%
05:00 +19°C° 0 mm 2 mps 756 mmHg 88%
06:00 +21°C° 0 mm 2 mps 756 mmHg 81%
07:00 +24°C° 0 mm 2 mps 756 mmHg 73%
08:00 +26°C° 0 mm 2 mps 756 mmHg 66%
09:00 +27°C° 0 mm 2 mps 756 mmHg 61%
10:00 +28°C° 0 mm 2 mps 756 mmHg 55%
11:00 +30°C° 0 mm 2 mps 756 mmHg 50%
12:00 +30°C° 0 mm 2 mps 755 mmHg 47%
13:00 +31°C° 0 mm 2 mps 755 mmHg 43%
14:00 +32°C° 0 mm 2 mps 755 mmHg 40%
15:00 +31°C° 0 mm 2 mps 754 mmHg 44%
16:00 +31°C° 0 mm 2 mps 754 mmHg 48%
17:00 +30°C° 0 mm 2 mps 754 mmHg 53%
18:00 +29°C° 0 mm 2 mps 754 mmHg 59%
19:00 +27°C° 0 mm 2 mps 754 mmHg 65%
20:00 +26°C° 0 mm 2 mps 754 mmHg 72%
21:00 +25°C° 0.1 mm 2 mps 754 mmHg 76%
22:00 +23°C° 0.1 mm 2 mps 754 mmHg 81%
23:00 +21°C° 0.1 mm 2 mps 754 mmHg 85%

21 June, Monday

Time Temperature Precipitation Wind Pressure Humidity
00:00 +21°C° 0.1 mm 2 mps 754 mmHg 88%
01:00 +21°C° 0.1 mm 1 mps 755 mmHg 91%
02:00 +21°C° 0.1 mm 1 mps 755 mmHg 94%
03:00 +21°C° 0 mm 1 mps 755 mmHg 93%
04:00 +22°C° 0 mm 1 mps 755 mmHg 92%
05:00 +22°C° 0 mm 1 mps 755 mmHg 92%
06:00 +24°C° 0 mm 2 mps 755 mmHg 84%
07:00 +25°C° 0 mm 2 mps 755 mmHg 77%
08:00 +27°C° 0 mm 2 mps 755 mmHg 69%
09:00 +28°C° 0 mm 2 mps 754 mmHg 62%
10:00 +29°C° 0 mm 2 mps 754 mmHg 56%
11:00 +31°C° 0 mm 3 mps 754 mmHg 49%
12:00 +31°C° 0 mm 3 mps 754 mmHg 46%
13:00 +33°C° 0 mm 3 mps 754 mmHg 43%
14:00 +34°C° 0 mm 3 mps 753 mmHg 40%
15:00 +33°C° 0 mm 3 mps 753 mmHg 43%
16:00 +33°C° 0 mm 3 mps 753 mmHg 47%
17:00 +31°C° 0 mm 2 mps 753 mmHg 50%
18:00 +29°C° 0 mm 2 mps 753 mmHg 57%
19:00 +27°C° 0 mm 2 mps 753 mmHg 64%
20:00 +25°C° 0 mm 2 mps 752 mmHg 72%
21:00 +24°C° 0 mm 2 mps 753 mmHg 72%
22:00 +23°C° 0 mm 2 mps 753 mmHg 72%
23:00 +21°C° 0 mm 2 mps 753 mmHg 73%

22 June, Tuesday

Time Temperature Precipitation Wind Pressure Humidity
00:00 +20°C° 0 mm 2 mps 753 mmHg 77%
01:00 +20°C° 0 mm 2 mps 753 mmHg 81%
02:00 +19°C° 0 mm 2 mps 753 mmHg 85%
03:00 +19°C° 0 mm 2 mps 753 mmHg 86%
04:00 +20°C° 0 mm 2 mps 753 mmHg 87%
05:00 +20°C° 0 mm 2 mps 753 mmHg 88%
06:00 +22°C° 0 mm 3 mps 753 mmHg 81%
07:00 +25°C° 0 mm 3 mps 753 mmHg 74%
08:00 +27°C° 0 mm 4 mps 752 mmHg 67%
09:00 +28°C° 0 mm 4 mps 752 mmHg 61%
10:00 +30°C° 0 mm 4 mps 752 mmHg 55%
11:00 +32°C° 0 mm 5 mps 752 mmHg 49%
12:00 +33°C° 0 mm 5 mps 752 mmHg 46%
13:00 +33°C° 0 mm 5 mps 752 mmHg 43%
14:00 +34°C° 0 mm 5 mps 752 mmHg 40%
15:00 +34°C° 0 mm 5 mps 752 mmHg 42%
16:00 +34°C° 0 mm 4 mps 752 mmHg 44%
17:00 +33°C° 0 mm 4 mps 752 mmHg 46%
18:00 +31°C° 0 mm 3 mps 752 mmHg 54%
19:00 +29°C° 0 mm 3 mps 752 mmHg 62%
20:00 +27°C° 0 mm 2 mps 752 mmHg 69%
21:00 +26°C° 0 mm 2 mps 752 mmHg 73%
22:00 +25°C° 0 mm 2 mps 752 mmHg 77%
23:00 +23°C° 0 mm 2 mps 753 mmHg 81%

23 June, Wednesday

Time Temperature Precipitation Wind Pressure Humidity
00:00 +23°C° 0 mm 2 mps 753 mmHg 84%
01:00 +21°C° 0 mm 2 mps 753 mmHg 87%
02:00 +21°C° 0 mm 2 mps 753 mmHg 91%
03:00 +21°C° 0 mm 2 mps 753 mmHg 90%
04:00 +23°C° 0 mm 2 mps 753 mmHg 89%
05:00 +23°C° 0 mm 2 mps 753 mmHg 88%
06:00 +25°C° 0 mm 3 mps 753 mmHg 80%
07:00 +27°C° 0 mm 3 mps 753 mmHg 72%
08:00 +28°C° 0 mm 4 mps 753 mmHg 63%
09:00 +30°C° 0 mm 4 mps 753 mmHg 56%
10:00 +32°C° 0 mm 4 mps 753 mmHg 49%
11:00 +34°C° 0 mm 4 mps 753 mmHg 42%
12:00 +34°C° 0 mm 4 mps 753 mmHg 39%
13:00 +35°C° 0 mm 4 mps 753 mmHg 37%
14:00 +36°C° 0 mm 4 mps 753 mmHg 35%
15:00 +35°C° 0 mm 3 mps 753 mmHg 37%
16:00 +35°C° 0 mm 3 mps 753 mmHg 39%
17:00 +35°C° 0 mm 3 mps 753 mmHg 42%
18:00 +33°C° 0 mm 3 mps 753 mmHg 51%
19:00 +30°C° 0 mm 2 mps 753 mmHg 60%
20:00 +27°C° 0 mm 2 mps 752 mmHg 70%
21:00 +26°C° 0 mm 2 mps 753 mmHg 72%
22:00 +26°C° 0 mm 2 mps 753 mmHg 74%
23:00 +25°C° 0 mm 2 mps 753 mmHg 76%
Show more